Location: Unspecified
(33.6682°S, 0.0000°E)
Time: 10:27:42
(UTC+00:00)

Envisat - Visible Passes

Search period start: 21 May 2019 00:00
Search period end: 31 May 2019 00:00
Orbit: 764 x 766 km, 98.2° (Epoch: 21 May)

Date Brightness Start Highest point End Pass type
(mag) Time Alt. Az. Time Alt. Az. Time Alt. Az.
21 May 5.2 05:40:06 10° ENE 05:44:13 25° ESE 05:48:23 10° SSE visible
21 May 4.9 17:57:27 11° E 17:57:27 11° E 17:58:10 10° ENE visible
21 May 4.0 19:37:40 41° NW 19:37:40 41° NW 19:41:02 10° NNW visible
22 May 6.0 05:06:39 10° ESE 05:07:55 11° ESE 05:09:10 10° SE visible
22 May 3.5 19:00:29 42° NE 19:00:29 42° NE 19:04:13 10° N visible
22 May 6.0 20:40:42 10° W 20:40:42 10° W 20:40:45 10° WNW visible
23 May 4.2 06:04:43 10° NE 06:09:33 45° ESE 06:14:27 10° S visible
23 May 4.3 18:23:20 21° ENE 18:23:20 21° ENE 18:26:14 10° NE visible
23 May 5.0 20:03:32 25° WNW 20:03:32 25° WNW 20:05:59 10° NW visible
24 May 5.5 05:29:28 10° ENE 05:33:06 20° ESE 05:36:45 10° SSE visible
24 May 3.7 19:26:21 46° NNW 19:26:21 46° NNW 19:29:53 10° NNW visible
25 May 3.7 18:49:11 35° NE 18:49:11 35° NE 18:52:46 10° NNE visible
25 May 5.8 20:29:23 14° WNW 20:29:23 14° WNW 20:30:19 10° WNW visible
26 May 4.6 05:53:47 10° NE 05:58:23 35° ESE 06:03:03 10° S visible
26 May 4.6 18:12:00 16° ENE 18:12:00 16° ENE 18:14:16 10° NE visible
26 May 4.6 19:52:12 31° NW 19:52:12 31° NW 19:55:04 10° NW visible
27 May 5.7 05:19:01 10° ENE 05:22:00 16° ESE 05:24:58 10° SSE visible
27 May 3.5 19:15:01 47° N 19:15:01 47° N 19:18:39 10° N visible
28 May 3.5 06:18:45 10° NNE 06:23:47 65° ESE 06:28:53 10° S visible
28 May 4.0 18:37:50 28° ENE 18:37:50 28° ENE 18:41:12 10° NNE visible
28 May 5.5 20:18:02 18° WNW 20:18:02 18° WNW 20:19:41 10° WNW visible
29 May 5.0 05:42:58 10° NE 05:47:15 28° ESE 05:51:34 10° SSE visible
29 May 4.8 18:00:39 12° ENE 18:00:39 12° ENE 18:01:54 10° ENE visible
29 May 4.2 19:40:51 37° NW 19:40:51 37° NW 19:44:02 10° NNW visible
30 May 5.8 05:08:58 10° E 05:10:54 12° ESE 05:12:51 10° SE visible
30 May 3.5 19:03:40 44° NNE 19:03:40 44° NNE 19:07:20 10° N visible
